Overview Statistics Trail Chart Weather Telemetry Raw packets
 

This is the latest recevied weather packets stored in our database for station/object NT9G. If no packets are shown the sender has not sent any weather packets the latest 10 day(s).

<< 13 14 15 16 17 18 19 >>
Time Temp. Humidity Pressure Rain* Wind** Luminosity Snow
1777758402 15° C 24% 1018.8 hPa 0 mm - - -
1777757801 14.44° C 25% 1018.8 hPa 0 mm - - -
1777757501 15° C 25% 1018.8 hPa 0 mm - - -
1777756900 15.56° C 25% 1018.9 hPa 0 mm - - -
1777756600 15.56° C 26% 1018.9 hPa 0 mm - - -
1777756300 15.56° C 24% 1018.9 hPa 0 mm - - -
1777755999 16.11° C 22% 1019 hPa 0 mm - - -
1777755699 16.67° C 20% 1019 hPa 0 mm - - -
1777755399 17.22° C 24% 1019 hPa 0 mm - - -
1777755098 17.22° C 23% 1019.1 hPa 0 mm - - -
1777754798 17.22° C 21% 1019.2 hPa 0 mm - - -
1777754498 17.22° C 25% 1019.3 hPa 0 mm - - -
1777754198 17.22° C 24% 1019.3 hPa 0 mm - - -
1777753897 16.67° C 26% 1019.4 hPa 0 mm - - -
1777753597 16.11° C 29% 1019.4 hPa 0 mm - - -
1777753297 15° C 27% 1019.6 hPa 0 mm - - -
1777752996 15° C 23% 1019.6 hPa 0 mm - - -
1777752696 15° C 25% 1019.7 hPa 0 mm - - -
1777752396 14.44° C 28% 1019.7 hPa 0 mm - - -
1777752096 13.89° C 28% 1019.8 hPa 0 mm - - -
1777751795 13.89° C 25% 1019.9 hPa 0 mm - - -
1777751495 13.89° C 29% 1019.9 hPa 0 mm - - -
1777751195 13.89° C 29% 1020 hPa 0 mm - - -
1777750895 14.44° C 26% 1020 hPa 0 mm - - -
1777750594 15° C 26% 1020 hPa 0 mm - - -

* Rain since midnight (hover to see other rain measurements)
** Current wind speed in m/s (hover to see current wind gust speed)